Location: Dammartin
(48.9032°N, 1.6195°E)
Time: 20:47:35
(UTC+00:00)

Cosmos 1606 - Pass Details

Date: 03 February 2023
Orbit: 488 x 510 km, 82.5° (Epoch: 21 March)

Event Time Altitude Azimuth Distance (km) Brightness Sun altitude
Rises 18:35:36 0° 358° (N) 2,651 6.3 -16.9°
Reaches altitude 10° 18:37:54 10° 8° (N) 1,760 5.3 -17.3°
Enters shadow 18:39:45 23° 28° (NNE) 1,154 4.1 -17.6°
